Date String (YYYY-MM-DD hh:mm:ss) UTC,Instrument flags,absolute air pressure of the measurement (hPa),sample flow rate (lpm),inlet stack bypass flow (lpm),air temperature of the measurement (°C),ambient temperature measured by the external sensor (°C),aerosol sample conditioner tube jacket temperature (°C),OPC LED temperature (°C),internal box temperature (°C),relative humidity of the measurement (%),span deviation,mass concentration of particles derived from Lorenz-Mie calculation of OPC scattering (μg/m³),mass concentration of particles derived from Lorenz-Mie calculation of OPC scattering (μg/m³),mass concentration of particles derived from Lorenz-Mie calculation of OPC scattering (μg/m³)
DateTimeUTC,F1_M11,P_M11,Q1_M11,Q2_M11,T1_M11,T2_M11,T3_M11,T4_M11,T5_M11,U1_M11,ZSPAN_M11,X0_M11,X2_M11,X1_M11
2024-06-01 19:00:00,SystemResetWarning,0826.9,4.99,000.00,029.4,028.7,000.0,037.6,031.1,017.3,0000.0,0016.65,0004.19,0003.40
2024-06-01 19:01:00,SystemResetWarning,0826.9,4.99,000.00,029.4,028.8,000.0,037.6,031.2,017.4,0000.0,0016.34,0004.16,0003.38
2024-06-01 19:02:00,SystemResetWarning,0826.9,5.01,000.00,029.5,029.0,000.0,037.7,031.3,017.2,0000.0,0016.62,0004.15,0003.37
2024-06-01 19:03:00,SystemResetWarning,0826.9,5.00,000.00,029.6,029.1,000.0,037.7,031.4,016.9,0000.0,0016.59,0004.15,0003.36
2024-06-01 19:04:00,SystemResetWarning,0826.9,5.00,000.00,029.6,029.2,000.0,037.7,031.4,016.3,0000.0,0016.01,0004.13,0003.33
2024-06-01 19:05:00,SystemResetWarning,0826.9,5.00,000.00,029.7,029.3,000.0,037.8,031.5,016.0,0000.0,0015.78,0004.13,0003.33
2024-06-01 19:06:00,SystemResetWarning,0826.9,5.00,000.00,029.8,029.4,000.0,037.8,031.6,015.4,0000.0,0015.97,0004.12,0003.31
2024-06-01 19:07:00,SystemResetWarning,0826.8,4.98,000.00,029.7,028.3,000.0,037.9,031.0,014.7,0000.0,0015.67,0004.07,0003.30
2024-06-01 19:08:00,SystemResetWarning,0826.7,5.01,000.00,029.4,026.8,000.0,037.9,030.3,015.5,0000.0,0015.84,0004.04,0003.29
2024-06-01 19:09:00,SystemResetWarning,0826.8,5.01,000.00,029.3,027.1,000.0,037.9,030.4,016.3,0000.0,0015.10,0004.07,0003.29
2024-06-01 19:10:00,SystemResetWarning,0826.7,5.00,000.00,029.3,027.4,000.0,037.8,030.6,016.1,0000.0,0013.81,0004.09,0003.28
2024-06-01 19:11:00,SystemResetWarning,0826.7,5.00,000.00,029.3,027.8,000.0,037.8,030.8,016.4,0000.0,0012.08,0004.09,0003.28
2024-06-01 19:12:00,SystemResetWarning,0826.6,5.00,000.00,029.3,028.1,000.0,037.7,030.9,017.1,0000.0,0011.69,0004.11,0003.29
2024-06-01 19:13:00,SystemResetWarning,0826.7,4.99,000.00,029.4,028.3,000.0,037.7,031.1,017.0,0000.0,0010.64,0004.10,0003.29
2024-06-01 19:14:00,SystemResetWarning,0826.7,4.99,000.00,029.5,028.6,000.0,037.7,031.2,016.9,0000.0,0010.14,0004.10,0003.29
2024-06-01 19:15:00,SystemResetWarning,0826.7,5.00,000.00,029.5,028.7,000.0,037.7,031.3,016.8,0000.0,0010.41,0004.13,0003.30
2024-06-01 19:16:00,SystemResetWarning,0826.8,5.01,000.00,029.6,028.9,000.0,037.8,031.3,015.6,0000.0,0010.88,0004.13,0003.31
2024-06-01 19:17:00,SystemResetWarning,0826.8,5.01,000.00,029.7,029.0,000.0,037.8,031.4,016.0,0000.0,0010.47,0004.15,0003.31
2024-06-01 19:18:00,SystemResetWarning,0826.8,4.99,000.00,029.7,029.2,000.0,037.8,031.5,016.0,0000.0,0011.51,0004.23,0003.32
2024-06-01 19:19:00,SystemResetWarning,0826.8,4.99,000.00,029.8,029.3,000.0,037.9,031.6,015.9,0000.0,0011.41,0004.26,0003.33
2024-06-01 19:20:00,SystemResetWarning,0826.8,5.00,000.00,029.8,028.9,000.0,037.9,031.3,015.6,0000.0,0011.69,0004.26,0003.33
2024-06-01 19:21:00,SystemResetWarning,0826.6,5.00,000.00,029.5,026.6,000.0,038.0,030.2,016.5,0000.0,0012.65,0004.21,0003.33
2024-06-01 19:22:00,SystemResetWarning,0826.6,5.01,000.00,029.1,025.5,000.0,037.9,029.7,016.7,0000.0,0012.73,0004.22,0003.33
2024-06-01 19:23:00,SystemResetWarning,0826.6,5.01,000.00,029.0,026.1,000.0,037.9,029.9,016.5,0000.0,0012.45,0004.21,0003.33
2024-06-01 19:24:00,SystemResetWarning,0826.6,5.00,000.00,028.9,026.6,000.0,037.7,030.1,017.2,0000.0,0012.74,0004.20,0003.33
2024-06-01 19:25:00,SystemResetWarning,0826.6,5.00,000.00,029.0,027.0,000.0,037.6,030.4,016.5,0000.0,0012.94,0004.16,0003.33
2024-06-01 19:26:00,SystemResetWarning,0826.6,5.00,000.00,029.0,027.4,000.0,037.6,030.6,016.6,0000.0,0012.77,0004.13,0003.33
2024-06-01 19:27:00,SystemResetWarning,0826.5,5.00,000.00,029.1,027.8,000.0,037.6,030.7,016.2,0000.0,0012.52,0004.15,0003.33
2024-06-01 19:28:00,SystemResetWarning,0826.6,5.00,000.00,029.2,028.1,000.0,037.6,030.9,016.3,0000.0,0013.57,0004.12,0003.33
2024-06-01 19:29:00,SystemResetWarning,0826.6,5.00,000.00,029.2,028.3,000.0,037.5,031.0,016.6,0000.0,0013.00,0004.07,0003.32
2024-06-01 19:30:00,SystemResetWarning,0826.6,5.00,000.00,029.3,028.5,000.0,037.6,031.1,015.8,0000.0,0014.86,0004.06,0003.31
2024-06-01 19:31:00,SystemResetWarning,0826.6,5.00,000.00,029.4,028.7,000.0,037.6,031.2,014.6,0000.0,0015.04,0004.02,0003.30
2024-06-01 19:32:00,SystemResetWarning,0826.6,5.00,000.00,029.4,028.9,000.0,037.6,031.2,014.3,0000.0,0013.88,0004.01,0003.30
2024-06-01 19:33:00,SystemResetWarning,0826.6,5.00,000.00,029.5,029.0,000.0,037.6,031.3,014.7,0000.0,0013.64,0003.97,0003.29
2024-06-01 19:34:00,SystemResetWarning,0826.7,5.00,000.00,029.6,029.1,000.0,037.7,031.4,014.5,0000.0,0013.82,0003.97,0003.27
2024-06-01 19:35:00,SystemResetWarning,0826.8,5.00,000.00,029.7,029.3,000.0,037.7,031.5,014.8,0000.0,0013.71,0003.96,0003.27
2024-06-01 19:36:00,SystemResetWarning,0826.8,5.00,000.00,029.7,029.4,000.0,037.7,031.6,015.0,0000.0,0013.23,0003.97,0003.27
2024-06-01 19:37:00,SystemResetWarning,0826.8,4.99,000.00,029.8,029.1,000.0,037.8,031.4,014.5,0000.0,0013.42,0003.98,0003.26
2024-06-01 19:38:00,SystemResetWarning,0826.8,4.99,000.00,029.5,026.8,000.0,037.9,030.4,014.6,0000.0,0013.28,0003.95,0003.26
2024-06-01 19:39:00,SystemResetWarning,0826.8,5.01,000.00,029.1,025.6,000.0,037.9,029.8,014.9,0000.0,0012.09,0003.96,0003.27
2024-06-01 19:40:00,SystemResetWarning,0826.8,5.01,000.00,029.0,026.1,000.0,037.8,029.9,015.6,0000.0,0012.32,0003.99,0003.28
2024-06-01 19:41:00,SystemResetWarning,0826.7,5.00,000.00,028.9,026.6,000.0,037.7,030.1,016.2,0000.0,0011.05,0003.98,0003.29
2024-06-01 19:42:00,SystemResetWarning,0826.8,5.00,000.00,029.0,027.1,000.0,037.6,030.4,016.0,0000.0,0010.53,0004.01,0003.29
2024-06-01 19:43:00,SystemResetWarning,0826.9,5.01,000.00,029.0,027.5,000.0,037.5,030.6,016.0,0000.0,0011.18,0004.03,0003.30
2024-06-01 19:44:00,SystemResetWarning,0826.9,5.00,000.00,029.1,027.8,000.0,037.5,030.7,015.8,0000.0,0011.55,0004.06,0003.31
2024-06-01 19:45:00,SystemResetWarning,0827.0,4.99,000.00,029.2,028.1,000.0,037.5,030.8,016.0,0000.0,0011.57,0004.05,0003.32
2024-06-01 19:46:00,SystemResetWarning,0827.0,5.00,000.00,029.2,028.4,000.0,037.5,030.9,016.1,0000.0,0011.59,0004.07,0003.33
2024-06-01 19:47:00,SystemResetWarning,0827.1,5.00,000.00,029.3,028.6,000.0,037.5,031.1,016.3,0000.0,0012.17,0004.08,0003.33
2024-06-01 19:48:00,SystemResetWarning,0827.1,5.00,000.00,029.4,028.8,000.0,037.5,031.2,015.9,0000.0,0012.39,0004.10,0003.33
2024-06-01 19:49:00,SystemResetWarning,0827.1,5.01,000.00,029.4,028.9,000.0,037.6,031.2,016.0,0000.0,0013.00,0004.16,0003.33
2024-06-01 19:50:00,SystemResetWarning,0827.2,5.00,000.00,029.5,029.1,000.0,037.6,031.3,016.0,0000.0,0013.31,0004.22,0003.33
2024-06-01 19:51:00,SystemResetWarning,0827.2,5.00,000.00,029.6,029.2,000.0,037.6,031.4,016.2,0000.0,0013.36,0004.27,0003.32
2024-06-01 19:52:00,SystemResetWarning,0827.2,4.99,000.00,029.7,029.3,000.0,037.7,031.5,015.9,0000.0,0012.43,0004.29,0003.32
2024-06-01 19:53:00,SystemResetWarning,0827.3,4.99,000.00,029.7,028.9,000.0,037.7,031.3,016.1,0000.0,0013.27,0004.30,0003.33
2024-06-01 19:54:00,SystemResetWarning,0827.2,5.00,000.00,029.4,026.9,000.0,037.8,030.3,016.6,0000.0,0013.10,0004.27,0003.34
2024-06-01 19:55:00,SystemResetWarning,0827.2,5.00,000.00,029.2,026.7,000.0,037.8,030.2,016.9,0000.0,0012.58,0004.27,0003.35
2024-06-01 19:56:00,SystemResetWarning,0827.2,5.01,000.00,029.1,027.0,000.0,037.7,030.3,016.9,0000.0,0013.50,0004.32,0003.35
2024-06-01 19:57:00,SystemResetWarning,0827.3,5.01,000.00,029.2,027.4,000.0,037.6,030.5,016.9,0000.0,0014.59,0004.34,0003.36
2024-06-01 19:58:00,SystemResetWarning,0827.4,5.00,000.00,029.2,027.8,000.0,037.6,030.7,016.8,0000.0,0016.05,0004.34,0003.36
2024-06-01 19:59:00,SystemResetWarning,0827.3,5.00,000.00,029.3,028.1,000.0,037.6,030.9,016.5,0000.0,0017.18,0004.43,0003.38
